Weather History for Araxos, Greece

Change the Weather History Date:

Saturday, October 8, 2011

  Actual Average Record
Temperature  
Mean Temperature 70 °F -  
Max Temperature 77 °F 71 °F 84 °F (2001)
Min Temperature 64 °F 54 °F 50 °F (2008)
Cooling Degree Days 6    
Growing Degree Days 20 (Base 50)    
Moisture  
Dew Point 65 °F    
Average Humidity 85    
Maximum Humidity 100    
Minimum Humidity 65    
Precipitation  
Precipitation 0.00 in - - ()
Sea Level Pressure  
Sea Level Pressure 29.75 in    
Wind  
Wind Speed 8 mph ()    
Max Wind Speed 17 mph    
Max Gust Speed 31 mph    
Visibility 5.6 miles    
Events Rain , Thunderstorm    
Averages and records for this station are not official NWS values.
T = Trace of Precipitation, MM = Missing Value Source: Averaged Metar Reports

Daily Weather History Graph

Daily Weather History Graph

Search for Another Location

Airport:

Trip Planner

Search our weather history database for the weather conditions in past years. The results will help you decide how hot, cold, wet, or windy it might be!

Date:

Astronomy

Oct. 08, 2011 Rise Set
Actual Time 7:35 AM EEST 7:07 PM EEST
Civil Twilight 7:09 AM EEST 7:33 PM EEST
Nautical Twilight 6:38 AM EEST 8:04 PM EEST
Astronomical Twilight 6:08 AM EEST 8:34 PM EEST
Moon 5:07 PM EEST (10/8) 4:08 AM EEST (10/8)
Length of Visible Light 12h 24m
Length of Day
11h 31m
Waxing Gibbous, 88% of the Moon is Illuminated
Oct 8
Waxing Gibbous
Oct 12
Full
Oct 20
Last Quarter
Oct 26
New
Nov 2
First Quarter

Hourly Weather History & Observations

Time (EEST) Temp. Dew Point Humidity Pressure Visibility Wind Dir Wind Speed Gust Speed Precip Events Conditions
12:50 AM 68.0 °F 64.4 °F 88% 29.89 in 6.2 mi South 8.1 mph - N/A Thunderstorm Thunderstorm
1:50 AM 68.0 °F 64.4 °F 88% 29.86 in 5.0 mi SSE 8.1 mph - N/A Rain Light Rain
3:50 AM 66.2 °F 62.6 °F 88% 29.80 in 6.2 mi South 9.2 mph - N/A   Scattered Clouds
4:50 AM 66.2 °F 62.6 °F 88% 29.80 in 6.2 mi South 6.9 mph - N/A   Partly Cloudy
5:50 AM 66.2 °F 64.4 °F 94% 29.80 in 6.2 mi South 9.2 mph - N/A   Partly Cloudy
6:20 AM 66.2 °F 64.4 °F 94% 29.80 in 6.2 mi South 9.2 mph - N/A   Partly Cloudy
6:50 AM 66.2 °F 62.6 °F 88% 29.80 in 6.2 mi South 9.2 mph - N/A   Partly Cloudy
7:20 AM 66.2 °F 62.6 °F 88% 29.80 in 6.2 mi South 9.2 mph - N/A   Partly Cloudy
7:50 AM 68.0 °F 62.6 °F 83% 29.77 in 6.2 mi South 9.2 mph - N/A   Partly Cloudy
8:20 AM 68.0 °F 64.4 °F 88% 29.77 in 6.2 mi South 8.1 mph - N/A   Partly Cloudy
8:50 AM 69.8 °F 66.2 °F 88% 29.77 in 6.2 mi SSE 9.2 mph - N/A   Partly Cloudy
9:20 AM 71.6 °F 68.0 °F 88% 29.77 in 6.2 mi SSE 9.2 mph - N/A   Partly Cloudy
9:50 AM 73.4 °F 66.2 °F 78% 29.80 in 6.2 mi South 12.7 mph - N/A   Partly Cloudy
10:20 AM 73.4 °F 66.2 °F 78% 29.80 in 6.2 mi South 12.7 mph - N/A   Partly Cloudy
10:50 AM 77.0 °F 64.4 °F 65% 29.80 in 6.2 mi South 11.5 mph - N/A   Partly Cloudy
11:20 AM 77.0 °F 64.4 °F 65% 29.80 in 6.2 mi South 11.5 mph - N/A   Partly Cloudy
11:50 AM 77.0 °F 64.4 °F 65% 29.77 in 6.2 mi SSW 15.0 mph - N/A   Mostly Cloudy
12:20 PM 77.0 °F 64.4 °F 65% 29.77 in 6.2 mi SSW 15.0 mph - N/A   Mostly Cloudy
12:50 PM 77.0 °F 64.4 °F 65% 29.77 in 6.2 mi SSW 11.5 mph - N/A   Mostly Cloudy
1:20 PM 77.0 °F 64.4 °F 65% 29.77 in 6.2 mi SSW 11.5 mph - N/A   Mostly Cloudy
1:50 PM 77.0 °F 66.2 °F 69% 29.74 in 6.2 mi SSW 9.2 mph - N/A   Mostly Cloudy
2:20 PM 77.0 °F 64.4 °F 65% 29.77 in 6.2 mi SSW 11.5 mph - N/A   Mostly Cloudy
2:50 PM 73.4 °F 64.4 °F 73% 29.74 in 6.2 mi WNW 5.8 mph - N/A   Mostly Cloudy
3:20 PM 68.0 °F 64.4 °F 88% 29.74 in 6.2 mi WNW 9.2 mph - N/A Rain , Thunderstorm Light Thunderstorms and Rain
3:50 PM 64.4 °F 62.6 °F 94% 29.74 in 2.5 mi West 11.5 mph - N/A Rain , Thunderstorm Thunderstorms and Rain
4:20 PM 66.2 °F 64.4 °F 94% 29.74 in 5.0 mi NW 5.8 mph - N/A Rain Light Rain
4:50 PM 66.2 °F 64.4 °F 94% 29.71 in 5.0 mi Calm Calm - N/A Rain Light Rain
5:20 PM 66.2 °F 64.4 °F 94% 29.71 in 5.0 mi Calm Calm - N/A   Overcast
5:50 PM 68.0 °F 66.2 °F 94% 29.68 in 6.2 mi SSE 5.8 mph - N/A   Overcast
6:20 PM 68.0 °F 66.2 °F 94% 29.68 in 6.2 mi SSE 5.8 mph - N/A   Overcast
6:50 PM 68.0 °F 66.2 °F 94% 29.68 in 6.2 mi Calm Calm - N/A   Mostly Cloudy
7:20 PM 68.0 °F 66.2 °F 94% 29.68 in 6.2 mi Calm Calm - N/A   Mostly Cloudy
7:50 PM 68.0 °F 66.2 °F 94% 29.65 in 4.3 mi Calm Calm - N/A Thunderstorm Thunderstorm
8:20 PM 68.0 °F 66.2 °F 94% 29.65 in 4.3 mi Calm Calm - N/A Thunderstorm Thunderstorm
8:50 PM 68.0 °F 66.2 °F 94% 29.65 in 3.7 mi South 8.1 mph - N/A Rain , Thunderstorm Light Thunderstorms and Rain
9:50 PM 64.4 °F 62.6 °F 94% 29.65 in 4.3 mi South 15.0 mph - N/A Rain Light Rain
10:50 PM 66.2 °F 64.4 °F 94% 29.65 in 3.7 mi South 17.3 mph 31.1 mph N/A Rain , Thunderstorm Light Thunderstorms and Rain
11:50 PM 64.4 °F 64.4 °F 100% 29.65 in 1.9 mi South 15.0 mph - N/A Rain , Thunderstorm Thunderstorms and Rain